Location: Newark
(51.3318°N, 0.0053°E)
Time: 06:35:39
(UTC+00:00)

BlueWalker 3 - Pass Details

Date: 04 December 2022
Orbit: 499 x 517 km, 53.2° (Epoch: 28 January)

Event Time Altitude Azimuth Distance (km) Brightness Sun altitude
Rises 18:33:06 0° 287° (WNW) 2,631 6.7 -23.8°
Reaches altitude 10° 18:35:18 10° 287° (WNW) 1,739 5.6 -24.2°
Enters shadow 18:38:30 57° 286° (WNW) 608 2.5 -24.6°
